Dewpoint
76 75 73 74 73 72 65 63 56 57 48 37 36 36 36 38 40 41 43 45 43 47 50 51 49 51 53 51 54 56 59 59 56 49 56 66 73 72 71 71 71 71 72 74 75 75 75 75 76 77 77 77 76 76 77 77 77 77 77 77 77 77 77 76 76 77 77 77 77 77 77 77 77 76 76 76 75 75 75 75 75 75 76 76 76 76 76 76 76 76 76 76 76 75 76 74 76
69 69 70 72 72 66 63 63 55 36 34 31 31 34 37 40 40 40 41 43 43 43 44 47 49 51 51 53 54 56 60 62 62 63 67 69 70 69 69 69 68 69 71 73 74 74 74 74 76 76 77 77 76 77 77 77 77 77 77 77 77 77 77 76 76 77 77 78 77 77 78 77 77 76 76 76 75 75 75 75 75 75 76 76 76 76 76 76 76 76 75 75 75 75 75 76 75
65 66 66 66 65 68 62 60 45 32 33 31 32 35 38 39 40 41 42 43 44 45 48 49 50 50 50 51 52 53 56 62 64 66 66 68 68 70 70 69 69 69 70 70 73 74 74 74 75 76 77 77 77 76 77 77 77 77 77 77 77 77 77 76 76 76 77 77 77 77 77 77 77 76 76 76 76 75 75 75 75 75 75 75 75 75 75 76 76 76 75 75 75 75 76 76 76
68 66 67 64 63 62 58 60 46 36 33 33 35 37 38 40 41 42 44 45 45 45 43 43 46 48 50 51 52 54 56 59 63 64 65 69 69 70 70 69 70 70 70 71 73 74 75 74 75 76 77 77 77 77 77 77 77 77 77 76 76 76 76 76 76 76 76 76 76 76 76 76 76 76 75 75 75 75 75 75 75 75 75 75 75 75 76 75 75 75 75 75 75 75 75 75 75
68 66 66 63 62 62 57 43 36 36 35 35 36 38 38 37 37 34 34 39 42 45 47 47 47 50 51 50 52 52 54 59 60 62 65 67 70 71 70 70 71 71 70 72 72 73 75 77 77 77 77 77 77 77 77 76 76 76 76 76 76 76 76 76 76 76 76 76 76 76 76 76 75 75 75 75 75 75 75 75 75 75 75 75 75 75 75 75 74 75 75 75 75 74 74 74 74
63 63 64 63 62 61 56 38 37 35 36 35 38 40 40 40 41 41 42 43 44 45 47 48 48 48 49 49 52 53 55 57 61 64 64 66 69 69 70 71 71 72 71 72 74 75 76 77 78 77 77 77 77 77 77 77 76 76 76 76 76 76 76 76 76 76 76 76 76 76 76 76 75 75 75 75 75 75 75 75 75 75 75 75 75 75 75 75 75 74 74 75 74 74 74 72 72
62 61 57 57 58 59 46 33 33 34 37 38 36 35 36 37 36 35 35 34 34 36 41 48 50 50 50 52 53 56 58 59 59 62 64 65 66 69 71 71 71 71 71 72 74 74 76 77 77 77 77 77 77 77 77 77 77 76 76 76 76 76 76 76 76 76 76 76 76 75 75 75 75 75 75 75 75 74 74 75 75 75 75 75 75 74 74 74 74 74 74 74 74 74 74 74 73
62 56 56 52 49 48 36 30 32 35 36 37 38 38 39 38 38 39 42 42 42 41 43 46 48 50 50 53 54 58 59 59 61 63 65 65 65 67 70 70 69 69 71 74 75 76 79 78 77 77 77 77 78 77 77 77 77 76 76 76 76 76 76 76 76 76 76 76 76 76 75 75 75 75 75 75 75 74 74 74 74 74 74 74 74 74 74 74 74 74 73 73 73 73 73 73 73
52 53 54 50 48 37 39 34 35 37 39 41 41 43 47 35 35 36 35 37 36 38 42 46 48 48 51 55 56 59 60 61 62 66 64 64 64 65 67 69 71 70 72 74 75 76 76 78 77 77 77 77 77 77 77 77 76 76 76 76 76 76 76 76 76 76 76 76 75 75 75 75 75 75 75 74 74 74 74 74 74 74 73 73 74 74 74 74 75 75 75 75 75 74 73 73 73
53 51 51 49 42 40 31 34 40 38 39 38 34 34 36 39 41 42 42 42 43 44 45 48 50 50 53 54 56 58 59 61 61 61 63 63 63 64 66 68 69 70 70 72 74 75 76 79 77 77 77 77 77 77 77 76 76 76 76 76 76 76 76 76 75 75 75 75 74 74 75 75 75 74 74 74 74 74 73 73 73 73 73 72 72 73 74 75 75 75 75 76 76 75 75 74 73
52 45 45 46 39 35 35 34 36 37 38 38 39 39 40 40 40 40 41 42 43 43 44 48 49 50 52 54 56 59 60 60 61 61 63 63 63 63 64 68 69 69 70 71 73 76 76 77 78 77 77 77 77 77 76 76 76 76 76 76 76 77 76 76 75 75 75 75 75 75 75 75 74 74 74 74 74 73 73 73 73 72 72 73 73 73 74 75 75 75 75 75 75 75 74 75 74
52 50 46 47 45 37 39 36 36 37 38 39 38 36 34 37 38 38 39 41 43 45 47 50 52 54 53 54 55 57 59 59 60 62 63 63 63 63 64 69 69 69 70 71 73 74 76 76 76 77 77 77 77 76 76 76 76 76 76 76 76 76 76 76 75 75 74 74 74 74 74 74 74 74 74 74 74 73 73 73 73 72 73 73 72 71 74 76 75 74 75 75 74 74 75 74 74
48 50 45 45 37 39 39 39 37 38 36 36 38 41 41 39 38 40 43 44 45 47 46 48 51 52 52 54 55 57 59 60 61 62 63 64 64 64 66 67 68 69 72 73 73 74 75 75 76 76 77 78 77 77 76 76 76 76 76 76 76 76 75 75 75 75 75 73 74 74 74 74 75 74 74 74 74 73 73 73 72 73 72 71 71 72 73 75 75 75 75 75 75 75 75 74 75
45 41 41 41 43 38 39 38 37 37 38 40 41 41 43 42 44 44 44 43 42 43 46 47 51 54 53 54 56 57 58 61 62 63 64 66 66 65 66 68 70 70 71 73 74 74 74 74 75 75 76 76 76 77 77 77 77 76 76 76 76 76 75 75 74 75 74 74 74 74 74 74 74 74 74 74 74 73 74 72 72 72 72 72 71 71 72 75 75 75 75 75 75 76 76 76 75
40 42 39 42 41 38 36 35 43 38 39 40 40 39 39 42 43 43 42 42 44 49 49 48 51 50 51 54 55 57 59 60 62 65 65 66 66 67 67 68 69 71 71 72 73 74 74 74 74 76 76 76 76 76 77 76 77 77 76 76 76 76 75 75 74 74 74 74 74 74 74 74 74 74 73 74 74 73 73 74 73 73 72 73 72 72 72 74 75 75 75 76 76 76 76 76 76
40 38 36 35 43 35 35 37 38 36 38 40 42 43 43 43 43 42 43 44 47 49 48 47 51 46 53 54 56 58 59 60 63 63 66 66 67 68 68 69 69 69 71 71 70 73 73 74 75 75 75 76 76 75 76 76 76 76 76 76 76 75 75 75 75 75 75 74 75 75 75 75 75 74 75 74 74 74 74 74 74 74 74 73 73 73 73 73 75 75 76 76 76 76 76 76 76
37 35 33 29 26 33 39 38 52 52 39 40 42 42 42 44 44 44 45 47 48 49 48 47 47 48 52 56 58 59 60 63 64 63 65 68 68 66 69 69 69 69 69 70 71 71 73 74 74 74 75 76 75 75 75 76 76 76 76 76 75 75 75 75 75 75 75 75 75 76 76 76 76 76 77 75 73 75 75 76 75 74 75 75 75 75 74 74 74 76 76 76 76 76 76 76 76
39 38 41 27 24 25 35 37 43 41 39 42 41 41 40 40 43 44 47 48 48 49 46 48 48 49 55 58 59 60 61 62 62 63 65 66 67 66 67 68 68 69 69 70 71 71 72 73 73 74 75 75 75 75 76 76 76 76 76 76 76 76 76 76 77 76 76 76 75 77 76 76 76 75 75 76 76 75 74 76 76 75 75 76 76 76 75 75 75 75 75 75 76 76 76 75 75
35 39 35 23 24 25 29 41 39 37 43 41 40 44 43 43 45 49 47 47 47 47 48 48 50 53 57 58 59 60 61 62 63 64 63 64 63 65 67 68 68 68 68 69 71 72 73 73 73 73 74 76 76 75 75 75 76 76 76 77 76 76 77 76 76 76 76 77 76 76 78 77 76 75 76 75 76 75 74 74 75 76 76 76 76 76 76 75 76 75 75 75 75 75 76 77 75
33 32 25 22 27 29 36 36 37 46 40 40 42 41 41 43 49 49 47 47 47 49 50 51 53 54 56 57 58 58 60 61 63 62 61 63 62 61 64 66 67 68 67 68 69 72 72 73 74 74 74 76 77 74 74 74 75 76 75 75 75 75 76 75 76 76 78 77 77 77 77 77 76 76 75 76 77 76 75 74 76 77 76 76 76 76 76 76 76 76 75 75 75 75 76 76 74
22 22 20 18 22 28 33 36 37 39 42 42 39 40 38 42 46 50 45 49 49 48 50 51 54 55 56 57 57 56 57 59 60 60 60 63 63 62 62 65 66 67 67 67 69 71 72 73 73 74 75 76 75 74 73 73 74 74 74 73 74 74 76 76 75 76 75 76 78 77 76 76 75 75 75 75 75 76 77 76 74 75 76 76 76 76 76 75 74 75 75 74 75 75 74 74 74
26 26 27 27 28 26 34 36 37 38 39 38 39 38 39 45 46 49 56 55 52 49 51 53 55 55 56 56 56 56 57 58 58 59 60 61 61 63 62 64 65 65 67 67 68 70 70 71 74 74 75 75 75 74 75 75 74 74 77 76 75 77 75 75 76 76 75 75 76 75 75 76 76 76 75 75 75 76 75 74 74 76 76 75 76 75 75 75 74 74 74 73 75 74 73 74 74
24 25 27 29 31 33 36 36 35 37 39 39 39 41 44 46 51 50 56 55 51 52 53 54 56 56 56 56 55 56 55 56 56 56 58 58 59 60 61 62 64 64 65 66 67 69 70 70 72 74 74 75 76 75 75 75 75 75 74 75 75 73 74 74 74 74 75 76 76 76 74 74 75 75 75 75 75 76 77 77 75 73 75 76 75 74 75 75 74 74 74 74 74 73 73 73 73
22 24 21 27 27 32 33 32 36 39 37 36 38 43 43 45 49 53 54 56 52 53 54 55 56 56 56 54 55 55 56 56 56 57 57 58 57 58 59 62 63 65 67 66 66 68 69 69 72 73 74 73 73 73 75 75 75 72 74 74 73 72 73 73 72 74 75 74 76 76 76 74 73 73 74 74 75 75 73 72 74 73 75 73 75 76 73 74 75 76 75 74 74 74 73 73 74
24 23 29 31 33 32 33 35 36 37 39 41 43 44 45 47 46 48 47 49 52 53 55 56 56 56 56 55 56 56 58 56 57 57 57 59 56 60 59 61 63 65 65 68 67 68 68 70 71 71 72 74 73 73 72 72 74 75 73 72 74 73 74 74 73 75 74 75 75 76 77 75 74 72 73 72 73 73 75 75 74 75 73 76 76 75 75 75 76 75 76 75 76 75 74 73 73
25 27 30 29 32 33 34 33 33 36 36 38 41 43 45 47 49 48 49 50 52 54 54 55 56 55 55 55 57 59 60 57 58 57 57 59 57 59 59 61 62 64 65 67 67 68 69 69 70 70 72 73 74 71 73 73 75 74 75 75 75 75 74 74 74 73 75 74 76 76 76 76 74 72 71 75 74 76 75 76 76 75 74 75 75 76 76 76 76 77 76 75 74 74 73 72 73
26 24 29 31 32 32 32 32 35 35 39 40 40 41 43 46 45 46 50 51 51 53 53 55 55 55 55 56 58 59 58 58 58 58 59 60 59 60 59 60 61 63 65 66 66 68 70 69 69 71 73 74 74 70 73 73 75 74 75 75 75 74 75 76 75 73 73 73 74 75 75 76 75 72 73 74 74 77 76 75 75 75 74 74 76 75 77 76 77 76 76 75 75 75 74 73 73
25 29 29 31 31 32 33 35 35 37 38 39 40 41 43 45 45 45 49 51 52 50 51 53 54 55 55 57 59 62 62 61 59 59 59 61 60 61 61 62 61 62 63 65 64 68 68 68 68 69 70 74 75 71 73 72 74 73 75 75 74 75 76 75 74 73 74 73 74 75 76 77 76 76 76 76 74 76 74 74 74 74 74 75 77 76 77 77 77 76 76 75 75 74 73 73 74
26 31 29 28 32 32 34 33 36 38 37 39 42 41 40 43 44 47 48 52 50 50 51 53 53 54 56 58 59 61 60 60 60 59 59 61 61 60 61 62 62 62 63 64 65 66 66 68 69 70 70 74 74 71 72 73 75 73 73 73 74 74 74 74 73 72 73 75 77 77 78 77 78 77 78 76 74 74 74 75 74 74 74 75 75 76 77 76 75 75 74 74 75 74 73 73 74
30 30 30 31 31 30 33 36 37 37 37 39 41 39 40 41 45 47 49 50 49 50 53 52 53 55 55 58 58 60 60 59 60 60 60 62 61 61 62 61 63 63 64 66 66 66 66 68 68 69 70 72 74 73 74 73 74 74 75 74 76 75 76 75 74 75 78 75 74 78 76 78 78 78 77 77 76 74 74 74 74 73 75 75 76 78 76 76 75 74 73 75 74 74 73 74 74
27 27 32 31 29 29 34 35 36 36 37 39 39 37 38 42 47 48 50 49 50 51 52 52 51 54 55 57 58 59 59 61 59 60 58 61 60 59 60 60 61 62 63 65 67 71 71 70 70 69 72 72 73 74 73 75 75 74 75 75 76 78 76 75 72 75 76 74 76 75 77 78 78 78 77 78 76 76 74 73 74 73 75 75 75 77 77 75 75 74 74 72 73 73 72 73 73
27 31 29 31 28 31 34 35 37 34 35 37 35 48 38 42 44 48 49 50 49 51 50 53 53 54 53 57 58 58 58 60 59 59 58 59 59 62 60 62 61 60 68 69 70 70 71 70 73 68 70 72 74 75 74 75 75 76 76 75 77 76 75 75 77 75 75 76 78 75 77 77 76 77 76 77 77 76 75 74 73 74 75 75 75 76 76 74 74 74 73 72 72 71 72 71 72
28 31 28 30 28 31 31 34 34 35 36 38 36 36 39 41 45 47 49 50 48 50 51 52 54 54 53 57 57 58 59 60 60 61 64 63 65 66 64 66 66 69 70 71 70 73 73 72 74 71 69 72 74 74 75 75 77 77 76 75 74 75 74 75 76 76 75 75 77 75 78 77 76 77 77 76 77 76 74 74 74 74 75 75 75 76 75 74 73 70 74 74 72 72 71 70 70
29 29 28 29 29 30 31 33 30 36 34 35 36 34 38 41 44 44 48 48 47 46 47 52 53 54 55 55 57 58 60 61 62 65 65 65 68 67 67 69 68 69 71 71 72 73 74 74 73 74 74 71 75 75 76 76 77 77 76 76 76 76 74 73 75 75 75 74 75 75 77 77 76 76 75 76 78 76 76 75 75 75 75 76 75 74 73 73 73 72 72 73 72 72 71 70 70
28 28 28 28 30 32 32 31 30 35 33 35 34 35 39 40 44 45 45 48 45 47 47 48 54 55 56 56 58 59 60 63 65 65 65 68 68 68 69 69 69 69 70 71 73 75 75 75 75 75 75 75 75 77 76 76 76 76 75 76 75 75 76 75 75 76 74 75 73 75 76 74 74 76 76 76 75 75 75 74 74 75 75 76 76 74 73 73 73 73 72 72 73 73 72 71 70
26 27 26 27 26 29 44 33 32 34 31 33 33 37 38 39 42 44 43 45 46 46 47 49 51 53 56 57 59 59 61 62 64 66 65 66 68 68 68 70 70 71 73 74 76 75 76 75 75 76 76 75 76 76 75 76 75 74 72 75 74 75 76 75 75 74 73 74 73 75 76 77 77 77 76 76 76 76 75 75 74 74 74 74 74 73 73 73 73 73 72 72 73 73 72 71 70
24 26 23 25 26 27 31 33 34 34 33 33 36 38 38 38 41 44 43 44 45 44 46 48 50 53 52 56 57 59 62 61 61 65 67 69 68 70 72 72 71 73 73 75 75 76 76 76 75 74 75 75 74 75 73 73 72 73 73 71 74 73 75 74 73 73 73 72 74 75 76 77 76 76 76 75 75 75 74 75 73 73 73 73 74 73 73 73 74 73 73 73 72 71 71 71 71
23 26 23 24 24 25 30 33 38 33 32 34 37 39 39 40 41 42 43 43 43 43 45 48 49 50 53 56 56 59 61 61 62 65 66 68 68 68 70 70 72 73 74 74 74 75 75 75 75 74 77 75 75 76 77 76 74 74 74 74 71 70 72 73 73 73 71 72 75 74 74 75 76 75 75 75 75 75 74 74 74 74 74 73 73 73 73 73 72 72 72 72 72 71 69 70 70
19 13 18 18 22 25 28 29 32 31 29 34 34 42 40 45 41 42 42 41 45 44 45 46 49 51 54 53 57 58 59 62 62 64 65 66 67 68 69 69 69 71 72 71 74 74 75 75 76 77 76 77 76 77 77 77 77 75 74 74 72 70 71 71 69 68 71 70 70 74 72 74 75 74 75 74 73 73 73 74 73 74 73 73 73 73 73 72 72 72 72 71 70 70 70 71 70
12 9 16 15 21 23 23 27 31 32 29 29 37 36 41 43 44 43 42 42 44 45 44 45 47 50 52 51 56 57 60 61 62 62 64 63 63 66 67 68 69 70 72 71 72 73 74 75 76 76 75 76 77 76 76 75 76 75 75 75 71 70 69 67 69 69 70 70 72 71 72 74 72 72 72 73 73 73 73 73 72 73 72 72 73 72 72 72 71 72 72 71 71 69 68 68 70
15 14 12 15 16 19 22 27 30 30 29 27 34 37 39 40 40 41 44 43 41 42 44 46 48 49 50 52 53 56 58 59 61 61 60 60 61 63 66 68 67 68 70 71 72 73 73 74 75 76 76 76 77 77 76 76 75 73 75 73 72 74 67 72 70 69 68 67 62 71 72 69 71 72 72 71 71 72 73 73 72 72 72 73 72 72 71 71 72 71 71 70 69 68 66 68 69
10 12 13 13 13 17 21 26 28 27 27 27 25 37 46 45 45 44 48 43 43 44 46 47 52 50 51 50 52 55 55 59 61 61 59 59 60 64 66 67 67 68 70 71 71 72 73 74 75 76 75 76 76 75 75 76 75 74 73 74 73 73 69 74 69 67 67 68 63 64 68 65 68 70 71 71 71 72 72 72 72 72 72 73 73 73 73 73 71 71 70 69 69 70 69 69 68
10 11 12 12 9 21 21 24 26 26 27 27 26 29 32 42 46 50 51 53 45 45 45 44 51 54 50 50 52 53 54 57 59 56 58 57 61 63 66 67 66 67 69 70 72 73 74 75 75 75 75 75 75 75 74 74 71 76 70 67 70 74 68 74 75 68 69 70 70 69 70 69 70 68 68 70 71 71 72 72 72 73 73 73 73 72 72 70 71 71 70 71 71 71 70 68 68
10 10 10 10 10 8 10 10 14 23 24 25 27 27 29 44 45 47 48 49 50 45 45 46 46 51 48 49 49 55 54 56 56 57 58 59 61 62 65 68 66 65 69 70 71 72 74 75 75 75 76 75 75 74 73 73 72 73 70 66 71 71 65 67 65 68 69 70 70 68 69 71 71 71 70 72 72 71 72 72 72 72 73 73 75 73 72 72 72 71 71 71 72 72 70 69 68
10 10 15 10 11 11 9 8 17 20 22 28 23 25 28 31 43 46 46 46 46 47 45 46 49 49 50 49 47 52 52 56 54 55 55 58 60 62 66 68 66 67 69 70 72 73 74 75 75 75 75 74 73 72 73 72 73 73 73 74 73 69 67 68 67 67 70 69 68 70 70 70 70 72 71 70 71 71 71 72 71 71 71 71 72 71 71 69 71 71 70 71 71 71 72 72 70
9 11 17 17 11 11 10 11 13 18 27 24 27 23 28 30 42 43 44 44 46 45 44 44 48 49 51 50 49 50 53 58 54 54 56 58 60 61 63 64 66 67 70 73 73 73 74 75 75 74 73 73 72 72 71 70 70 74 71 70 64 71 72 70 68 67 67 70 68 69 70 69 70 71 70 71 71 70 70 70 69 69 70 67 71 69 70 70 71 70 71 70 71 70 72 71 70
9 14 16 15 11 14 16 16 21 24 26 26 20 22 25 28 34 36 44 41 39 40 45 45 48 48 48 51 50 50 54 55 56 55 57 59 58 61 61 65 67 70 72 73 72 73 72 73 73 73 73 72 72 71 70 70 69 68 71 67 66 65 65 65 69 67 68 67 67 68 68 68 69 69 70 70 70 69 71 70 67 68 69 70 70 70 69 68 66 69 69 70 71 70 69 69 68
9 14 15 16 24 21 25 19 23 21 24 31 25 24 24 24 28 34 35 41 41 44 43 45 45 47 49 53 50 49 54 57 56 56 56 61 61 62 63 66 68 72 72 72 71 72 71 72 72 72 72 71 71 70 70 70 70 70 68 67 66 66 66 65 65 66 66 67 66 69 70 69 69 70 71 69 69 63 70 70 69 69 70 70 70 69 69 69 68 68 69 71 72 70 69 69 68
10 16 20 21 22 28 19 23 22 21 22 26 23 23 21 24 29 29 30 33 35 37 38 42 44 45 47 47 50 51 55 52 56 59 61 60 61 62 64 68 71 72 72 72 71 68 70 71 71 70 71 71 71 70 70 70 70 69 68 68 65 72 66 66 65 66 67 68 69 68 67 68 67 68 68 68 68 68 70 69 70 71 70 70 70 70 69 69 69 69 69 68 69 68 69 69 69
10 16 20 20 19 21 22 22 27 23 22 19 20 21 20 26 28 32 28 29 31 39 43 45 46 46 48 49 52 49 51 54 56 57 58 62 63 62 66 68 71 71 71 71 69 69 70 69 71 70 70 70 71 71 70 70 69 69 69 71 71 73 66 67 66 66 68 70 70 67 66 68 68 67 67 69 69 69 69 69 69 69 70 70 70 70 69 69 69 69 68 68 67 68 70 69 70
14 12 13 21 25 22 23 23 22 21 23 22 21 21 25 21 26 24 26 33 34 31 31 48 47 48 50 46 50 50 50 57 59 59 58 61 63 64 67 69 71 71 70 67 68 70 70 69 70 70 70 70 71 70 70 69 69 69 69 68 68 69 68 67 70 68 67 67 66 67 68 68 68 68 70 69 70 69 68 69 69 69 69 69 70 69 68 69 69 69 68 68 68 69 68 68 67
11 11 14 17 21 25 20 23 21 20 19 19 27 22 27 28 38 31 35 26 32 29 35 39 45 53 55 52 50 50 50 52 55 56 57 60 64 65 65 68 70 70 70 66 68 69 68 69 70 70 70 70 70 70 68 68 69 69 68 68 68 67 68 69 70 69 69 68 68 67 68 69 69 70 70 70 68 68 69 68 68 68 69 68 69 69 69 68 69 68 69 68 68 67 68 67 67
13 13 14 15 16 18 23 25 18 19 21 23 30 28 26 26 27 26 30 30 32 31 29 30 40 50 56 53 53 51 52 52 54 55 56 62 63 64 65 67 68 69 67 65 68 68 68 69 69 70 70 70 69 69 67 67 68 68 68 67 67 68 67 66 66 66 65 66 68 67 68 68 68 68 68 67 68 68 69 68 68 68 68 68 68 68 68 68 69 68 67 68 67 67 68 67 68
14 13 13 15 15 12 25 17 26 19 17 22 18 21 23 24 24 34 31 29 29 32 33 28 42 46 54 54 56 54 54 54 58 59 60 60 62 65 65 68 68 68 65 66 68 68 69 69 68 70 70 69 68 68 67 67 67 67 68 68 68 68 67 66 67 65 66 67 68 68 68 68 68 67 66 66 67 67 68 67 68 68 68 67 67 67 68 68 68 69 67 68 67 67 67 67 67
10 13 13 11 17 18 26 24 18 19 21 21 21 19 20 22 33 29 31 29 31 36 41 35 35 37 43 49 56 56 58 57 59 59 60 60 61 62 66 68 68 69 66 67 68 68 68 68 68 68 68 68 68 65 67 67 68 66 67 68 68 68 68 67 67 68 68 65 65 65 66 68 66 68 69 69 69 67 67 67 68 66 66 67 67 66 68 67 68 67 68 68 67 68 67 66 67
11 11 9 13 15 19 25 23 25 27 22 25 23 21 23 39 30 29 29 37 41 38 39 32 31 38 42 47 47 60 62 60 59 59 60 60 62 62 63 64 66 68 66 65 66 64 64 66 68 69 68 68 68 67 68 68 67 67 67 69 69 69 69 68 68 68 67 66 66 65 65 62 67 66 67 67 68 66 66 65 63 63 65 65 66 66 66 67 68 67 67 66 67 67 67 66 66
10 10 11 13 14 16 17 20 20 21 24 22 23 19 28 36 34 31 35 37 37 36 39 46 38 39 38 44 48 54 58 60 58 60 61 62 61 63 64 66 68 67 65 63 63 64 63 64 65 65 67 66 65 66 67 68 68 68 68 67 67 67 66 67 66 66 67 67 67 66 65 65 67 67 67 66 66 67 67 66 65 66 66 67 67 67 68 68 68 67 67 67 66 66 66 65 66
10 10 12 14 15 16 17 20 18 17 20 26 26 23 34 34 37 41 35 36 32 35 38 43 39 33 52 53 47 55 57 61 59 57 58 60 64 66 66 65 65 63 62 61 64 64 62 62 63 63 63 62 62 65 68 68 69 69 67 67 67 66 67 68 66 67 67 66 66 66 67 68 65 67 67 65 66 66 66 66 65 66 67 66 67 68 67 67 67 67 66 65 66 66 66 65 66